Kars, Turkey

9:10 PM +03 on May 26, 2017 (GMT +0300)
Kars

Weather History for LTCF - February, 2013

Change the Weather History Date:

Tuesday, February 12, 2013

  Actual Average Record
Temperature  
Mean Temperature 24 °F -  
Max Temperature 34 °F 30 °F - ()
Min Temperature 15 °F 11 °F - ()
Degree Days  
Heating Degree Days 40    
Moisture  
Dew Point 23 °F    
Average Humidity 89    
Maximum Humidity 100    
Minimum Humidity 63    
Precipitation  
Precipitation 0.00 in 0.03 in - ()
Sea Level Pressure  
Sea Level Pressure 29.95 in    
Wind  
Wind Speed 4 mph ()    
Max Wind Speed 18 mph    
Max Gust Speed 31 mph    
Visibility 4.0 miles    
Events Fog    
T = Trace of Precipitation, MM = Missing Value Source: Averaged Metar Reports

Daily Weather History Graph

Daily Weather History Graph

Search for Another Location

Airport or City:

Trip Planner

Search our weather history database for the weather conditions in past years. The results will help you decide how hot, cold, wet, or windy it might be!

Date:

Astronomy

Feb. 12, 2013 Rise Set
Actual Time 6:05 AM EET 4:38 PM EET
Civil Twilight 5:36 AM EET 5:07 PM EET
Nautical Twilight 5:04 AM EET 5:39 PM EET
Astronomical Twilight 4:33 AM EET 6:10 PM EET
Moon 6:49 AM EET (2/12) 7:17 PM EET (2/12)
Length of Visible Light 11h 30m
Length of Day
10h 33m
Waxing Crescent, 6% of the Moon is Illuminated
Feb 12
Waxing Crescent
Feb 17
First Quarter
Feb 25
Full
Mar 4
Last Quarter
Mar 11
New

Hourly Weather History & Observations

Time (EET) Temp. Windchill Dew Point Humidity Pressure Visibility Wind Dir Wind Speed Gust Speed Precip Events Conditions
12:50 AM 21.2 °F - 21.2 °F 100% 29.92 in 0.1 mi West 2.3 mph - N/A Fog Light Freezing Fog
1:50 AM 21.2 °F - 21.2 °F 100% 29.92 in 0.1 mi Calm Calm - N/A Fog Light Freezing Fog
2:00 AM 21 °F - 20 °F 95%  in 0 mi Calm Calm - - Fog Heavy Fog
2:50 AM 21.2 °F - 21.2 °F 100% 29.92 in 0.4 mi South 1.2 mph - N/A Fog Light Freezing Fog
3:50 AM 21.2 °F 16.4 °F 19.4 °F 93% 29.92 in 2.5 mi West 3.5 mph - N/A   Overcast
4:50 AM 21.2 °F - 19.4 °F 93% 29.92 in 2.5 mi Calm Calm - N/A   Overcast
5:50 AM 17.6 °F - 17.6 °F 100% 29.92 in 6.2 mi Calm Calm - N/A   Mostly Cloudy
6:50 AM 15.8 °F - 14.0 °F 93% 29.92 in 6.2 mi Calm Calm - N/A   Mostly Cloudy
7:50 AM 17.6 °F - 15.8 °F 93% 29.92 in 3.7 mi Calm Calm - N/A   Scattered Clouds
8:00 AM 17 °F - 17 °F 97%  in 4 mi Calm Calm - -   Mist
8:50 AM 21.2 °F - 19.4 °F 93% 29.95 in 3.1 mi Calm Calm - N/A   Mostly Cloudy
9:50 AM 24.8 °F - 24.8 °F 100% 29.95 in 2.5 mi Calm Calm - N/A   Mostly Cloudy
10:50 AM 24.8 °F 20.5 °F 24.8 °F 100% 29.95 in 2.5 mi West 3.5 mph - N/A   Mostly Cloudy
11:50 AM 26.6 °F - 26.6 °F 100% 29.92 in 2.5 mi WSW 1.2 mph - N/A   Mostly Cloudy
12:50 PM 28.4 °F - 28.4 °F 100% 29.92 in 3.7 mi Variable 2.3 mph - N/A   Mostly Cloudy
1:50 PM 28.4 °F 23.3 °F 26.6 °F 93% 29.92 in 3.7 mi WSW 4.6 mph - N/A   Mostly Cloudy
2:00 PM 28 °F - 27 °F 96%  in 4 mi WSW 4.6 mph - -   Mist
2:50 PM 32.0 °F 28.7 °F 30.2 °F 93% 29.95 in 5.0 mi ENE 3.5 mph - N/A   Mostly Cloudy
4:50 PM 32.0 °F 21.2 °F 24.8 °F 75% 29.95 in 5.0 mi North 16.1 mph 29.9 mph N/A   Mostly Cloudy
5:50 PM 32.0 °F 22.1 °F 24.8 °F 75% 29.98 in 6.2 mi North 13.8 mph - N/A   Mostly Cloudy
6:50 PM 32.0 °F 21.6 °F 24.8 °F 75% 29.98 in 6.2 mi North 15.0 mph 28.8 mph N/A   Mostly Cloudy
7:50 PM 30.2 °F 18.1 °F 24.8 °F 80% 30.01 in 6.2 mi North 18.4 mph 31.1 mph N/A   Mostly Cloudy
8:00 PM 31 °F - 23 °F 63%  in 6 mi North 18.4 mph - -   Mostly Cloudy
8:50 PM 30.2 °F 18.1 °F 23.0 °F 75% 30.01 in 6.2 mi North 18.4 mph 29.9 mph N/A   Mostly Cloudy
9:50 PM 30.2 °F 19.3 °F 23.0 °F 75% 30.01 in 6.2 mi North 15.0 mph - N/A   Mostly Cloudy
10:50 PM 30.2 °F 21.9 °F 23.0 °F 75% 30.04 in 6.2 mi NNE 9.2 mph - N/A   Mostly Cloudy
11:50 PM 30.2 °F 22.6 °F 23.0 °F 75% 30.04 in 6.2 mi NNE 8.1 mph - N/A   Mostly Cloudy